Vorticity
nan nan nan nan nan nan nan nan nan nan nan nan nan nan nan nan nan nan nan nan nan nan nan nan nan nan nan nan nan nan nan nan
nan 7 6 3 1 4 7 7 7 7 6 6 6 4 4 6 3 7 6 6 6 5 5 4 5 5 5 5 5 7 9 nan
nan 7 7 6 4 4 3 5 5 5 5 5 5 6 5 3 6 6 5 5 5 5 5 5 3 4 5 5 7 10 9 nan
nan 7 7 5 5 8 5 4 5 5 5 4 1 7 7 4 8 4 5 5 5 5 5 4 5 4 7 7 5 8 7 nan
nan 6 7 5 4 3 6 6 7 10 8 4 4 6 7 6 4 5 6 6 4 6 5 6 4 5 6 7 5 7 8 nan
nan 6 5 5 4 6 6 5 7 8 10 5 4 6 8 7 6 7 5 8 7 6 4 8 6 5 4 7 7 6 7 nan
nan 6 7 5 5 5 7 7 8 7 9 6 6 5 6 7 6 7 8 5 7 6 7 8 8 7 8 7 6 6 6 nan
nan 7 7 6 5 4 7 9 6 8 7 9 8 3 6 6 6 7 7 6 8 6 8 6 7 9 7 7 6 7 7 nan
nan 9 6 7 6 6 7 6 7 9 8 11 9 4 4 8 7 7 6 8 7 7 8 7 7 7 8 7 8 7 8 nan
nan 9 8 7 5 7 6 7 9 6 8 10 9 7 5 8 6 8 8 8 8 7 8 7 7 7 8 7 9 9 9 nan
nan 10 10 7 6 6 8 8 7 7 8 9 10 8 6 6 7 8 9 5 8 8 7 8 8 8 7 11 8 9 9 nan
nan 11 12 7 7 7 9 8 8 8 8 9 9 9 9 5 7 9 8 8 8 8 9 7 7 7 9 11 9 8 10 nan
nan 9 9 7 7 8 7 9 9 9 10 10 10 11 8 6 10 9 7 9 7 9 7 8 9 9 8 6 6 9 12 nan
nan 9 7 9 5 8 9 10 9 10 10 13 10 9 9 7 9 9 8 8 9 9 8 8 9 11 5 6 7 7 11 nan
nan 11 14 10 5 6 9 7 9 12 10 9 11 8 7 9 8 9 9 7 10 11 10 7 8 8 8 5 9 10 9 nan
nan 17 15 13 9 10 8 6 5 9 9 7 11 10 8 7 8 8 8 9 8 9 12 7 6 8 9 7 7 13 8 nan
nan 18 16 11 12 8 7 7 6 9 10 11 9 9 10 10 11 10 9 9 10 11 10 7 5 7 8 8 8 7 9 nan
nan 17 15 10 11 8 7 11 8 8 10 9 9 9 11 10 9 11 10 9 10 11 11 9 9 8 8 6 6 6 8 nan
nan 12 13 11 7 8 9 11 13 9 8 9 8 7 9 10 8 8 10 10 9 9 9 9 9 9 8 7 7 6 8 nan
nan nan nan nan nan nan nan nan nan nan nan nan nan nan nan nan nan nan nan nan nan nan nan nan nan nan nan nan nan nan nan nan
CAPE
1152 546 571 652 801 777 723 768 905 1106 1267 1569 1788 1617 1676 1997 2063 1969 1697 1366 1095 954 832 756 726 556 332 131 83 284 301 917
1443 1049 537 348 671 522 495 557 665 845 999 1251 1211 1195 1536 1695 1637 1632 1299 1001 822 762 621 530 394 233 89 1 158 534 276 762
1939 1400 989 1079 623 678 387 512 579 668 815 852 690 429 1071 1444 1120 1083 860 518 530 549 485 381 233 124 67 29 30 145 585 442
2140 1870 1370 1110 687 1000 688 536 541 500 398 701 215 549 331 277 490 647 454 296 363 434 414 226 97 116 181 33 152 465 554 557
2043 2138 2366 1645 1139 1174 670 843 663 733 551 865 611 607 680 253 932 546 314 303 229 248 307 242 150 656 780 747 658 912 656 631
1855 2034 2160 2479 1697 1329 1151 1124 1148 1196 972 1979 1367 1211 1333 737 843 554 651 299 287 370 379 433 716 820 980 997 1177 1141 905 941
1706 1828 2154 2166 2368 1525 1756 1548 1514 1423 1556 1962 1576 1311 2155 1101 1067 720 722 693 572 953 711 748 865 1036 1018 1084 1253 1316 1232 1084
1617 1582 2391 1995 2209 2655 2267 2207 2086 1818 1927 2048 2384 1799 2362 1429 1122 840 824 883 854 1040 1095 1016 1050 1049 1025 1106 979 994 1091 1163
1138 2215 2204 2290 2268 2405 2064 1720 1784 1998 1891 2846 2754 2362 2859 2524 1587 1383 1139 1193 1206 1445 1215 1180 1034 1024 988 1017 967 1004 1068 1109
813 1192 1701 2537 2433 2349 1879 1688 1899 1882 1991 2359 3103 2617 2788 2445 1947 1776 1498 1630 1279 1130 1129 1073 1002 952 1271 817 948 998 1050 985
231 1780 1746 2667 2691 2234 2135 2284 1921 1809 1761 1864 2956 2677 2268 2346 2172 2039 2404 1481 1440 1434 1329 1555 1367 1193 885 824 992 1134 844 720
0 1237 2341 2590 2551 2611 1981 1796 2119 1781 1783 1946 2828 2462 2481 2632 2617 2741 2085 1681 1642 1460 1786 1433 1191 1360 779 913 1061 643 560 635
0 9 2391 2093 2298 2489 2355 2354 2442 1811 1804 2424 2593 2467 1855 2061 2322 2421 2531 1817 1918 2226 2247 2071 1644 1576 1266 277 4 1 1 280
0 0 38 1840 1946 2196 2224 2109 2301 2090 2427 2679 2550 2388 1974 1455 1582 2136 2126 2066 2248 2199 1888 1932 1715 1318 920 133 6 2 3 6
211 101 7 1052 1644 1884 1931 1729 1748 2121 2276 2383 2112 1793 1388 1330 1348 1695 1758 1759 1914 2442 2024 1538 737 406 708 213 1 1 2 6
456 53 24 527 1565 1545 1067 1095 1043 1404 1633 1490 1392 1332 1249 1244 1215 1495 1799 1717 1529 1992 2149 1837 328 8 9 0 0 0 0 0
212 0 4 739 1207 1241 893 825 960 859 695 713 929 1034 913 912 982 1213 1460 1666 1516 1795 1941 1109 465 19 0 4 1 1 0 0
348 388 590 716 1244 705 850 1282 1506 921 388 399 198 63 36 7 16 192 559 678 636 832 1032 1031 532 58 1 0 0 1 1 0
113 102 247 572 472 404 622 1246 906 508 265 48 4 3 5 3 2 3 3 16 4 4 3 3 27 1 1 1 0 1 0 0
1 40 175 378 615 1062 1078 922 938 448 119 16 5 6 49 6 5 5 5 8 7 3 7 8 5 7 6 2 0 1 0 0